User: anonymous   Login
Location: *
(17.3280°S, 114.7300°W)
Time: 10:26:25
(UTC+00:00)
Language:

Envisat - Orbit

View from above orbital plane
View from above orbital plane
View from above satellite
View from above satellite

Ground track
Ground track

The orbit data is extracted from the following two-line orbital elements,

1 27386U 02009A   20333.79795279  .00000054  00000-0  31357-4 0  9995
2 27386  98.1398 332.2302 0001324  90.8744  82.1067 14.38001633982230
Epoch (UTC): 28 November 2020 19:09:03
Eccentricity: 0.0001324
inclination: 98.1398°
perigee height: 764 km
apogee height: 766 km
right ascension of ascending node: 332.2302°
argument of perigee: 90.8744°
revolutions per day: 14.38001633
mean anomaly at epoch: 82.1067°
orbit number at epoch: 98223

The dashed part of the orbit path shows where the satellite is in the earth's shadow,  

DLR